Location: Unspecified
(0.0000°N, 0.0000°E)
Time: 20:58:21
(UTC+00:00)

EXOCUBE - Visible Passes

Search period start: 26 February 2024 00:00
Search period end: 07 March 2024 00:00
Orbit: 357 x 440 km, 99.1° (Epoch: 26 February)

Date Brightness Start Highest point End Pass type
(mag) Time Alt. Az. Time Alt. Az. Time Alt. Az.
26 Feb ? 04:59:32 10° NNE 05:02:22 86° W 05:05:16 10° SSW visible
27 Feb ? 05:41:53 10° NW 05:43:14 13° WNW 05:44:37 10° WSW visible
28 Feb ? 04:49:52 10° NNE 04:52:38 48° ESE 04:55:28 10° S visible
29 Feb ? 05:30:55 10° NNW 05:33:12 21° WNW 05:35:31 10° SW visible
01 Mar ? 04:39:50 10° NE 04:42:18 26° ESE 04:44:51 10° SSE visible
02 Mar ? 05:19:50 10° N 05:22:33 39° WNW 05:25:21 10° SSW visible
03 Mar ? 04:29:37 10° ENE 04:31:25 15° ESE 04:33:15 10° SE visible
04 Mar ? 05:08:26 10° N 05:11:19 82° WNW 05:14:18 10° SSW visible
06 Mar ? 04:56:42 10° NNE 04:59:31 46° ESE 05:02:26 10° S visible
